GFSSGP_850_spd_138.txt.gz
Wind_Speed
2 5 4 3 3 5 2 5 3 3 4 5 8 5 8 12 2 2 16 15 19 19 19 21 23 25 29 32 29 27 28 29 32 29 27 23 21 21 19 18 16 16 16 14 13 15 14 15 16
2 0 5 2 5 3 4 4 5 4 12 13 13 9 5 4 5 17 21 17 18 20 22 21 25 27 29 28 29 28 29 30 30 28 25 23 20 21 21 19 16 15 15 14 13 13 13 16 18
3 4 4 4 3 2 1 2 4 4 4 3 6 9 4 4 14 22 15 21 21 21 22 22 25 26 25 25 26 27 28 28 28 26 23 21 20 20 19 18 16 14 14 13 10 12 15 17 17
0 1 4 5 3 2 2 2 5 3 8 10 9 7 6 2 11 12 23 21 23 24 23 24 24 25 23 23 24 24 25 27 27 23 20 20 18 15 14 14 14 12 11 12 12 13 16 18 15
2 1 4 3 3 4 3 3 6 6 4 10 6 5 9 3 8 23 24 26 28 23 20 25 27 26 24 22 21 21 23 25 24 22 19 17 14 10 10 10 10 11 10 11 13 14 14 13 12
1 3 5 3 4 5 0 8 4 9 8 9 12 7 3 5 17 22 23 22 20 19 20 23 27 27 26 23 21 20 21 21 21 20 16 12 7 7 6 7 8 8 9 10 11 13 13 13 10
5 3 0 1 3 4 2 11 6 7 4 3 11 4 7 15 21 22 22 23 22 24 22 21 24 27 25 23 21 17 16 16 17 16 14 11 8 5 5 5 7 8 9 8 10 12 12 11 9
4 3 4 3 1 3 6 7 13 10 3 13 7 6 7 23 24 23 23 23 22 23 23 22 22 23 24 23 23 22 17 14 15 16 14 14 9 6 4 4 6 6 7 7 9 11 12 11 9
3 4 1 4 1 4 9 4 8 10 11 6 1 14 25 30 27 27 25 24 22 20 21 23 23 23 25 29 26 23 18 16 16 15 14 11 7 6 6 4 4 4 5 5 8 11 14 12 10
4 3 5 6 3 4 8 9 16 8 12 2 11 20 27 32 30 30 29 26 25 26 22 26 25 26 27 27 24 24 23 16 18 18 15 10 8 8 7 6 4 3 3 4 7 10 14 16 13
3 4 2 5 11 7 9 7 10 13 4 11 26 32 33 33 31 29 29 26 25 23 21 21 23 22 23 25 23 21 21 22 19 15 14 12 10 10 10 8 7 5 4 4 6 10 12 16 16
1 12 11 8 4 13 10 17 8 17 2 21 28 34 35 34 31 29 28 28 27 24 21 20 20 21 19 19 20 19 18 17 16 15 14 13 10 10 10 8 7 6 6 6 7 10 12 14 18
5 5 3 15 6 12 21 16 6 16 3 19 32 34 34 33 29 26 24 24 26 26 23 21 20 19 19 18 16 16 15 15 14 14 14 12 11 9 10 8 8 6 7 7 9 11 13 15 17
3 11 12 6 4 12 10 5 9 9 14 27 32 33 33 32 30 27 26 25 25 25 23 21 20 17 16 15 14 13 14 13 13 13 13 12 11 11 13 11 10 11 8 8 10 11 13 16 18
6 7 7 1 1 4 15 4 3 18 24 30 29 31 31 31 31 30 26 23 24 23 22 22 21 17 15 13 11 12 13 12 13 13 13 14 13 13 12 11 14 11 8 8 10 12 13 15 17
5 5 3 3 4 6 3 5 2 27 32 27 26 30 31 30 29 28 27 24 22 24 22 21 20 19 16 12 11 10 14 14 15 15 15 14 14 11 13 15 13 13 12 13 13 14 15 16 18
6 0 1 6 1 4 4 5 7 24 26 25 26 28 29 29 28 29 28 26 23 22 24 22 20 19 18 14 13 11 13 13 13 14 14 13 12 13 14 15 13 12 15 16 17 17 18 18 17
2 2 1 3 1 3 3 2 8 22 24 26 25 23 25 29 30 28 28 26 25 23 23 24 21 19 22 19 16 14 15 15 14 15 16 14 16 16 17 16 14 15 15 16 18 20 19 21 20
2 2 1 3 2 6 2 2 5 15 16 18 22 26 27 30 25 25 27 25 26 26 24 25 24 20 21 24 21 20 19 18 17 17 16 17 16 17 17 17 16 15 15 15 17 19 21 23 22
2 1 3 3 5 6 3 5 4 9 13 23 27 29 34 30 27 26 25 26 27 27 27 26 22 25 23 22 23 23 23 22 20 20 20 20 19 19 19 19 19 19 19 19 19 19 22 24 23
1 4 3 3 3 7 7 5 2 2 9 14 22 29 26 33 31 29 28 27 25 26 25 26 25 24 23 23 23 24 26 27 25 22 23 20 21 24 24 24 23 22 21 22 23 22 23 24 24
3 2 1 6 4 4 3 4 5 2 4 8 23 27 31 29 29 29 28 28 27 25 25 25 24 22 20 22 23 26 25 27 25 24 24 22 21 23 24 26 27 29 29 29 27 24 27 26 28
3 3 3 2 4 4 3 4 6 2 6 8 16 30 32 31 29 27 26 24 22 17 16 19 18 19 23 21 19 20 23 25 23 26 26 20 18 20 23 24 24 26 28 28 28 30 31 31 31
6 5 7 5 3 2 2 5 5 6 12 5 5 22 30 28 27 25 22 19 17 18 17 17 19 17 17 18 15 14 15 16 21 22 22 21 21 22 23 24 27 28 31 31 31 31 32 33 32
6 7 3 4 5 5 0 3 7 5 3 10 14 23 26 26 23 23 23 21 20 21 20 17 15 14 12 12 11 9 11 13 14 15 17 18 19 20 22 23 25 27 29 30 30 30 31 32 32
3 6 5 2 2 4 3 3 4 7 10 16 22 26 24 24 23 23 21 22 20 17 17 17 17 15 13 11 9 9 12 14 16 17 18 20 20 21 20 20 22 23 24 25 27 29 28 26 28
4 4 4 7 3 3 4 6 3 5 4 18 18 24 27 27 26 25 21 19 17 16 16 16 14 11 11 10 10 12 16 19 22 24 26 26 26 28 27 25 26 26 26 25 26 27 26 23 26
5 6 4 3 2 3 5 5 5 2 4 6 11 23 29 27 26 24 20 19 18 16 16 14 13 12 10 12 16 18 18 19 23 28 29 28 30 32 32 32 31 32 32 31 30 29 25 24 26
2 2 7 5 4 5 1 6 6 7 9 13 19 31 32 31 27 23 22 20 19 18 16 15 14 14 16 16 13 17 21 25 26 27 30 33 32 32 33 35 37 37 37 37 35 33 30 26 25
1 4 5 5 4 1 3 6 2 6 10 15 17 27 29 29 26 24 23 21 19 18 17 16 13 14 13 14 16 20 25 29 30 30 31 34 36 40 43 44 43 42 41 38 36 34 33 33 29

GFSSGP_850_spd_141.txt.gz
Wind_Speed
1 1 2 1 1 3 8 7 5 8 4 4 3 3 9 10 3 3 13 12 14 17 17 19 22 25 29 32 31 29 29 32 30 27 26 22 17 16 18 16 16 14 13 12 14 12 13 13 16
1 2 2 1 3 6 5 6 12 10 11 11 10 8 8 5 5 13 10 17 15 18 18 18 25 29 32 30 29 29 31 30 28 25 23 23 21 19 17 15 15 14 13 12 11 11 12 15 16
3 2 1 3 3 5 3 3 5 9 4 3 5 10 5 4 10 9 17 18 16 19 20 21 28 28 28 27 27 29 30 30 26 24 22 24 22 20 17 16 13 13 12 11 9 12 13 15 17
4 3 1 3 6 2 2 3 4 2 7 10 8 9 8 10 6 11 20 18 19 19 20 25 26 28 27 26 27 29 28 27 25 22 21 21 19 17 15 14 12 11 10 9 9 12 14 15 14
3 2 3 3 4 1 1 6 7 7 6 6 5 8 8 4 9 20 20 19 19 20 21 22 24 24 26 24 23 26 26 25 22 20 20 17 13 13 12 11 10 11 9 10 10 12 12 10 9
1 1 3 4 4 1 4 9 10 13 12 10 11 9 5 9 19 19 22 24 20 19 19 25 23 25 24 21 21 23 23 21 19 18 17 13 9 9 9 9 9 9 8 8 9 9 8 9 8
2 2 2 2 4 1 4 8 7 11 7 5 9 5 6 12 17 21 25 19 17 19 20 21 25 25 24 20 20 21 19 15 15 12 9 5 4 6 6 7 7 7 6 6 7 8 7 6 6
2 1 2 3 6 4 5 3 9 6 7 11 5 6 8 18 20 21 19 17 19 19 22 19 22 25 24 21 22 16 14 13 12 10 7 4 2 3 4 5 5 5 4 4 6 8 8 6 5
4 3 5 4 5 4 8 2 4 6 14 6 4 8 19 26 23 22 21 20 23 22 23 22 22 22 22 21 22 20 19 8 8 8 6 5 1 0 2 3 2 2 2 1 4 7 9 8 6
3 2 3 4 6 6 7 4 9 6 11 6 14 16 26 25 24 23 21 20 19 19 23 22 23 24 28 30 26 21 17 14 13 12 10 6 3 1 2 2 2 1 1 2 4 6 9 10 8
1 3 2 5 8 6 8 8 5 10 6 8 18 25 26 24 22 22 21 19 20 22 20 22 21 22 26 28 27 27 18 15 13 9 9 8 5 5 5 5 6 5 4 3 4 6 8 11 12
4 5 5 7 5 3 9 12 6 6 5 11 23 27 26 25 24 23 22 23 22 21 20 22 21 23 23 21 19 17 13 10 8 1 5 9 8 6 5 6 7 6 6 5 6 6 9 11 13
2 4 6 11 13 4 10 8 5 8 8 17 25 26 25 22 21 20 20 21 22 22 21 22 20 22 21 18 16 14 14 12 11 13 10 10 9 8 7 7 7 6 7 8 8 8 9 11 12
2 9 18 7 2 4 11 7 3 6 13 21 27 25 23 23 21 19 22 23 22 20 18 18 17 17 16 15 14 14 12 12 12 12 11 10 11 10 11 10 9 9 9 10 9 10 11 12 14
4 7 6 3 7 6 12 6 2 18 18 21 23 21 21 19 19 20 20 22 22 21 19 17 15 15 13 11 11 11 10 11 11 11 12 12 11 11 13 11 10 10 11 10 8 10 12 12 13
2 1 2 3 4 6 6 4 8 19 22 21 21 20 20 21 21 20 19 18 19 20 19 19 19 17 14 12 12 10 10 12 12 13 12 12 12 11 11 12 11 11 13 13 13 12 13 14 15
1 3 2 2 0 6 5 4 11 17 18 19 19 19 19 19 20 22 21 18 16 17 18 18 18 18 16 13 12 11 10 12 13 14 15 13 11 12 14 13 11 11 12 12 15 16 16 18 18
2 4 2 1 2 4 6 5 10 15 15 18 18 18 19 20 22 22 22 20 18 15 16 18 18 17 17 17 15 14 14 13 14 13 14 13 13 14 15 16 15 14 15 15 15 16 17 19 20
2 2 2 2 2 2 2 5 9 13 14 16 17 18 18 18 15 18 19 19 19 19 17 17 19 19 18 19 20 19 18 16 15 15 15 16 16 16 15 16 16 16 17 15 16 17 18 19 19
5 6 3 5 3 2 4 5 7 11 14 15 16 17 17 14 14 17 18 18 20 19 20 18 14 16 19 18 18 21 22 21 19 18 17 18 18 19 19 20 19 19 20 20 20 20 21 20 19
2 1 3 4 6 7 7 2 3 6 12 12 15 16 16 17 16 17 19 20 20 20 20 19 19 17 15 17 19 20 23 23 21 20 20 20 20 21 24 23 23 22 22 23 21 21 22 24 23
4 5 3 7 5 3 3 8 4 6 10 16 18 19 19 18 19 20 20 20 20 18 18 17 16 16 19 19 20 21 24 25 22 22 23 23 22 20 23 22 25 24 24 25 25 26 27 25 25
2 4 4 3 4 5 3 5 4 4 11 17 20 21 20 20 20 22 22 18 14 14 12 13 18 19 20 20 20 19 19 20 22 20 19 17 20 20 20 18 21 23 22 24 24 25 26 27 29
10 4 5 4 2 5 3 5 6 8 17 14 16 18 20 20 21 22 22 19 16 16 17 18 17 16 18 15 14 13 10 7 12 14 16 17 18 18 19 21 22 22 24 25 25 26 25 27 29
2 3 3 4 4 1 3 3 5 4 8 12 17 18 18 19 19 21 22 21 18 20 21 17 15 13 12 11 9 9 8 11 14 14 16 17 18 18 17 18 17 19 19 20 20 22 23 23 26
3 1 1 3 2 2 2 4 1 5 12 11 15 14 14 17 18 20 22 23 21 19 18 16 15 11 8 9 6 8 9 11 16 20 21 23 24 25 23 23 23 23 23 22 22 23 23 23 23
5 5 3 5 2 3 0 2 7 5 1 8 13 14 16 18 19 22 21 21 22 20 19 17 16 14 12 12 14 12 13 16 19 21 24 28 28 30 29 28 30 29 27 27 26 27 26 25 25
3 9 4 1 2 3 2 3 4 2 5 8 13 17 17 17 21 22 21 21 21 20 17 14 13 12 13 13 13 14 17 19 21 22 24 26 30 32 32 29 29 30 31 31 31 32 33 31 30
6 4 6 4 2 2 3 1 4 5 8 12 17 19 21 22 24 22 22 22 20 19 16 14 15 15 15 15 15 17 17 19 22 25 28 30 32 33 35 36 36 37 36 34 34 35 35 38 34
1 5 6 5 5 0 3 5 4 5 8 15 18 19 19 21 20 22 23 21 19 17 15 16 16 16 16 15 16 18 21 22 25 29 31 32 34 36 37 38 39 39 39 38 34 30 29 32 35

GFSSGP_850_spd_144.txt.gz
Wind_Speed
3 2 1 4 5 8 14 13 14 15 11 11 10 11 14 14 8 5 10 10 14 15 18 20 24 29 31 32 29 31 31 29 28 25 23 20 18 18 16 15 15 14 15 15 14 14 13 16 16
3 2 1 7 3 11 11 13 15 12 12 8 11 10 12 13 11 14 9 12 14 16 18 22 25 29 33 29 28 32 29 28 26 22 20 19 18 17 16 15 14 13 13 13 13 14 15 16 15
3 1 4 2 10 12 11 10 11 12 6 5 6 11 8 4 8 6 13 12 16 16 19 23 28 31 30 28 28 30 27 26 24 24 24 23 19 17 15 14 13 13 12 12 13 15 14 18 15
2 2 5 7 13 10 9 8 5 3 11 7 10 14 12 7 4 13 13 13 16 18 22 25 28 28 28 27 27 28 24 23 23 25 23 21 19 17 15 13 11 11 11 12 13 14 15 15 14
2 5 4 9 14 9 6 9 10 11 7 10 10 12 9 11 16 16 15 14 16 21 23 23 23 26 28 25 26 26 23 22 22 21 19 17 16 14 14 13 11 10 11 12 14 14 11 9 10
4 5 6 10 13 8 8 8 14 15 16 16 17 13 9 12 15 15 15 15 18 20 21 23 23 23 29 25 23 24 22 20 20 18 16 13 12 12 12 11 10 10 9 9 11 10 9 8 8
5 2 6 6 6 11 8 4 11 12 12 13 9 11 8 13 14 17 17 17 17 19 22 22 23 25 26 26 20 19 17 16 16 13 10 9 10 10 10 9 9 9 7 5 6 7 7 6 5
3 3 5 8 6 11 7 3 6 10 15 10 3 7 12 18 17 17 14 14 17 19 21 20 23 22 22 22 19 17 14 11 8 4 4 5 7 8 10 10 7 7 6 4 4 4 4 4 4
3 1 7 8 9 8 8 6 6 9 14 13 9 13 25 22 19 16 15 14 17 18 21 20 21 23 24 26 20 16 12 8 7 4 2 4 4 6 8 5 5 5 4 3 1 2 4 2 0
4 6 7 5 8 4 3 2 10 10 12 17 23 23 25 22 20 18 18 19 19 17 18 23 17 24 19 21 20 16 14 8 2 5 4 4 2 2 3 4 5 5 4 6 5 2 3 4 2
3 8 6 6 8 7 7 7 5 10 7 12 24 26 23 22 19 18 18 18 18 17 16 15 15 18 16 15 20 15 15 11 6 4 3 3 1 1 2 2 4 2 7 3 7 9 4 5 6
4 3 6 8 5 3 5 11 8 11 8 16 23 26 23 21 19 19 19 18 18 17 15 15 15 16 14 14 10 11 12 12 8 9 5 3 3 5 2 2 3 5 3 5 1 2 5 5 7
4 5 6 9 4 5 7 8 9 13 16 21 25 24 23 20 19 18 18 18 17 17 15 14 14 15 16 17 12 9 8 6 5 6 6 7 4 5 5 6 5 4 3 4 6 6 5 6 7
6 13 13 2 6 8 8 10 6 9 17 22 23 22 21 20 19 18 18 18 17 16 15 14 13 14 16 16 13 12 9 7 8 8 9 10 8 8 5 7 7 8 7 7 5 6 7 8 7
7 11 6 5 7 8 10 10 7 15 18 22 21 20 20 19 19 18 18 17 17 16 15 15 15 14 14 13 11 10 8 8 8 8 10 10 9 10 10 8 8 7 9 9 10 9 8 9 8
7 5 10 6 8 6 14 12 11 16 19 20 20 20 20 19 18 17 16 16 16 16 17 16 14 14 13 12 9 8 8 8 9 9 10 12 11 11 12 10 9 8 10 9 12 12 12 13 12
8 9 8 9 5 7 10 12 13 16 16 18 19 19 19 18 17 17 17 16 17 17 16 17 16 15 14 13 10 10 9 9 10 11 11 13 12 11 11 11 12 12 12 11 11 13 13 13 14
9 7 7 8 8 7 7 11 13 16 16 18 18 19 18 18 19 18 17 16 15 16 16 16 16 16 16 14 13 11 10 10 10 11 11 12 11 13 13 12 14 14 13 14 13 14 14 15 16
1 5 11 5 2 6 4 9 12 16 15 17 17 18 18 17 17 18 18 18 17 15 15 16 17 16 16 14 13 12 12 11 11 12 13 13 14 15 17 15 14 14 14 15 16 14 13 13 16
5 7 9 5 2 8 6 5 9 14 15 17 18 17 17 17 17 18 19 19 18 17 17 16 15 16 15 14 14 13 12 11 12 12 14 15 16 16 18 19 18 17 16 17 18 19 18 15 16
9 9 10 8 8 3 6 8 9 12 13 13 15 17 17 18 18 17 18 19 18 18 18 17 15 13 10 12 14 15 15 16 14 13 12 13 16 17 17 20 20 22 23 20 19 21 19 19 19
9 3 3 8 13 10 8 6 11 10 13 16 18 19 19 19 17 17 17 18 18 18 18 18 18 17 17 16 15 14 14 13 12 13 13 16 17 19 20 18 18 21 21 23 23 24 23 23 21
6 5 3 5 9 3 10 9 10 10 12 16 20 21 20 21 20 18 17 17 17 17 17 16 17 17 16 15 13 15 14 11 9 9 9 13 14 16 16 18 18 20 21 21 23 23 24 22 24
10 8 6 5 7 9 6 7 9 10 14 13 20 22 21 21 20 18 16 16 16 16 16 15 16 16 17 16 12 10 10 8 7 8 9 10 11 13 15 14 16 18 21 23 23 25 26 26 25
12 11 7 8 8 5 5 6 12 4 4 7 10 22 22 22 22 21 20 18 17 17 16 15 15 11 11 11 11 10 10 9 8 8 9 12 14 15 17 18 19 18 18 20 21 22 22 23 25
13 9 4 6 5 7 4 6 3 0 7 8 12 17 23 22 22 23 24 21 19 17 16 15 14 11 10 13 12 11 8 7 8 11 12 15 18 18 19 20 21 21 22 22 23 26 27 26 25
9 10 5 2 2 6 5 3 8 1 2 3 12 17 18 22 23 23 24 24 20 18 16 16 16 15 14 14 12 11 10 10 11 16 17 14 18 19 22 22 24 25 25 23 24 24 25 27 29
8 10 7 6 3 5 7 4 2 1 3 1 7 13 18 20 22 22 21 21 20 18 16 15 16 19 17 15 13 11 11 12 16 17 19 23 24 24 26 26 25 26 26 26 26 28 28 30 31
7 10 8 3 5 4 3 6 4 2 6 3 4 10 15 20 22 20 19 16 17 17 16 15 14 14 14 13 11 13 13 13 16 19 23 21 23 28 32 32 31 28 28 27 28 28 28 29 30
10 15 14 7 10 2 6 1 6 3 3 6 6 8 13 17 17 17 17 16 15 15 14 14 13 13 13 15 15 15 14 15 20 23 21 21 27 33 34 31 30 29 28 27 28 28 29 30 31

GFSSGP_850_spd_147.txt.gz
Wind_Speed
4 2 4 9 6 9 18 18 17 15 15 16 14 17 19 18 12 7 12 17 18 19 21 23 27 31 31 29 26 29 30 30 27 25 20 18 17 17 18 15 16 16 16 15 15 17 18 17 17
2 6 6 9 2 14 14 18 17 13 10 10 13 16 22 20 19 15 13 13 16 19 22 24 31 29 27 28 29 30 28 25 23 20 19 18 17 18 16 14 14 15 14 15 16 17 17 17 15
1 8 13 1 11 15 14 15 12 14 11 10 14 15 11 4 14 9 14 15 16 19 21 26 29 31 28 29 28 27 24 23 22 21 20 18 17 17 15 15 14 12 13 15 16 17 17 17 15
5 7 11 13 18 17 19 13 20 17 15 13 17 15 12 7 8 13 15 14 18 20 22 25 28 27 29 27 25 25 23 24 24 23 21 19 18 17 15 15 12 12 13 15 15 17 16 15 13
6 12 3 15 19 18 14 19 20 16 17 17 20 20 15 19 19 17 16 16 20 23 25 27 26 25 25 24 22 21 23 23 22 20 19 18 17 17 16 14 12 13 12 15 15 13 11 11 11
11 11 4 15 17 17 13 15 16 18 17 19 19 19 14 15 18 16 15 21 22 26 24 21 28 29 21 22 20 19 19 18 17 17 17 15 16 15 14 14 13 11 11 13 11 10 9 9 9
16 4 10 14 17 17 9 18 21 18 17 15 14 17 14 16 17 17 19 20 22 22 23 23 26 31 22 25 18 16 17 16 14 13 13 14 14 14 14 13 12 10 7 7 8 7 7 6 7
14 4 9 14 15 19 9 18 18 18 13 10 8 9 15 18 20 18 24 18 22 22 21 22 23 33 31 22 17 17 12 9 6 7 9 10 13 13 13 12 10 9 7 6 5 5 4 5 6
11 4 9 12 14 15 9 17 17 18 18 17 19 22 24 23 19 17 17 19 21 21 25 24 25 28 30 24 23 13 6 4 1 3 8 13 8 6 9 7 8 8 8 7 4 2 2 3 7
14 10 8 6 9 4 7 19 15 17 19 23 26 24 23 20 20 16 16 19 19 17 21 22 24 27 23 23 15 14 7 1 3 4 10 5 2 6 4 9 11 10 10 9 10 10 3 2 3
7 12 5 13 8 2 12 11 5 11 18 18 25 25 22 20 20 17 20 20 20 20 20 19 23 18 22 20 16 13 8 8 2 3 5 4 3 3 3 6 8 8 8 7 8 10 6 2 4
5 5 5 8 9 2 15 10 19 20 21 22 24 24 22 20 22 22 19 20 19 19 18 18 17 19 15 18 15 10 9 3 1 2 4 5 2 5 1 2 2 7 4 6 1 1 5 4 4
8 8 3 7 8 11 9 17 16 21 21 23 24 22 21 20 19 21 21 20 20 20 18 14 16 13 14 11 7 3 3 2 3 6 5 2 1 3 2 3 3 3 3 2 3 4 4 7 5
6 4 2 5 10 8 16 12 21 18 22 23 21 21 20 20 20 20 19 19 19 18 17 16 16 15 17 12 10 12 9 7 6 3 8 10 4 6 4 4 2 6 10 7 4 5 6 7 7
6 9 10 11 12 7 19 10 18 20 21 21 19 19 18 19 19 20 19 19 18 17 16 14 14 14 14 12 9 9 8 7 7 6 8 10 7 8 7 4 6 3 7 11 8 7 6 7 7
12 15 12 11 10 10 8 13 17 19 21 20 18 19 18 18 18 18 19 18 17 16 16 14 13 13 13 11 10 9 8 7 7 7 7 8 9 9 7 7 7 9 8 9 10 10 9 9 10
11 9 18 11 9 12 10 16 17 19 18 19 18 18 18 18 18 18 18 18 18 17 16 15 14 13 12 11 9 8 8 7 8 9 9 10 10 9 9 8 9 15 9 11 10 10 12 12 14
11 9 14 14 10 11 10 18 14 18 19 19 19 19 19 19 19 19 19 18 18 18 17 16 15 15 14 11 11 9 8 8 7 8 8 10 8 9 10 8 11 16 14 12 12 13 13 14 14
11 3 8 10 7 8 11 18 14 16 19 19 20 19 19 19 18 19 19 19 18 18 17 17 16 16 15 14 12 11 9 10 9 9 9 10 10 11 13 11 12 12 14 17 18 18 16 15 14
8 8 9 7 7 10 7 14 16 16 16 20 20 20 19 19 20 20 20 20 19 19 19 18 18 18 16 14 13 12 10 9 10 10 9 11 12 13 14 16 14 14 17 16 18 18 17 17 15
12 11 11 8 10 12 4 12 15 16 16 19 19 20 20 20 20 22 22 21 20 20 20 19 18 17 16 16 13 12 12 12 13 13 8 11 13 13 17 15 17 19 19 19 21 19 20 19 18
16 10 5 7 7 13 13 9 16 18 15 16 21 21 21 21 19 21 22 22 22 21 19 19 18 18 16 14 13 13 11 10 12 13 6 12 13 13 15 16 16 17 19 20 21 21 21 21 20
6 2 7 11 12 16 11 9 18 18 18 19 21 22 23 22 22 21 21 21 21 19 19 19 20 19 18 16 14 12 10 7 5 4 7 10 10 14 12 11 12 15 15 17 20 21 22 24 25
4 5 6 9 13 12 10 9 14 17 16 16 27 28 25 25 24 21 20 20 19 19 19 18 20 19 17 17 14 12 14 10 5 4 4 6 8 9 9 9 11 21 20 18 20 21 22 23 24
9 12 8 7 9 8 10 7 8 4 9 5 7 29 28 27 26 24 22 22 21 21 21 19 19 19 19 17 16 13 11 12 9 4 5 7 10 11 13 13 15 18 20 22 25 27 27 26 27
13 18 10 4 11 10 6 7 5 8 3 2 7 16 27 27 28 27 25 23 23 23 22 21 19 18 17 17 16 15 16 12 8 9 7 10 13 11 18 15 17 19 22 24 26 28 29 29 29
14 14 12 6 4 5 9 5 3 7 5 2 8 16 20 26 28 27 27 25 23 24 24 22 20 18 17 17 16 17 17 14 12 14 16 10 13 14 18 24 22 24 26 25 27 28 29 29 30
11 11 7 6 5 6 7 2 3 6 1 4 6 11 18 25 24 25 25 26 24 23 22 21 20 19 18 17 16 15 14 13 11 12 12 16 19 21 24 24 27 31 31 30 29 28 30 30 29
13 12 11 14 5 5 6 8 11 7 4 4 1 4 8 12 19 23 23 24 24 22 21 19 20 18 18 18 17 15 14 14 12 10 10 13 20 24 26 29 32 34 34 33 31 32 32 33 33
19 19 16 10 9 8 8 11 14 10 5 2 4 2 6 14 20 19 19 20 19 20 19 18 18 17 16 15 15 14 12 12 11 11 11 14 22 25 28 26 27 30 30 30 30 32 31 33 35